Theta_e
308 310 311 312 314 315 315 315 316 317 317 318 317 316 315 313 312 313 312 310 308 305
307 306 307 308 309 312 315 315 316 317 316 318 315 315 315 312 310 310 310 309 306 303
305 305 305 307 308 309 311 313 315 316 316 316 318 314 313 312 311 309 308 309 306 305
303 304 302 304 306 308 309 309 310 314 315 313 313 314 313 312 310 308 307 308 306 305
302 300 299 298 298 300 300 304 305 306 307 313 312 312 312 310 311 309 307 307 305 303
298 298 297 298 296 297 298 299 301 302 304 305 309 311 309 311 310 310 309 307 305 303
296 294 293 293 293 294 295 295 296 295 295 296 299 303 308 308 309 308 308 306 306 304
293 294 293 292 292 292 293 293 294 294 296 297 298 300 302 306 305 306 305 304 304 304
291 291 290 290 289 290 291 292 293 294 294 295 296 295 295 298 305 305 306 303 303 303
290 290 289 289 288 288 287 289 288 290 291 292 294 293 294 294 300 305 305 303 302 302
289 289 289 289 288 287 287 286 287 288 290 289 291 291 293 293 298 300 304 304 304 301
289 288 289 288 288 287 287 286 286 288 288 288 289 290 291 292 297 297 299 303 305 302
289 288 288 289 288 287 287 286 287 287 288 287 288 289 290 291 293 293 294 296 299 295
290 289 289 289 289 288 287 286 286 286 287 287 287 288 290 290 291 291 291 292 292 294
Wind_Speed
11 6 4 6 7 6 5 6 9 8 10 13 11 10 11 10 12 17 16 20 16 12
9 7 7 6 6 7 8 9 8 12 11 15 14 15 12 10 13 12 15 14 13 13
7 5 6 7 7 7 9 8 9 11 14 13 15 14 15 10 12 13 12 12 17 16
6 7 6 6 7 8 8 6 7 10 13 11 14 13 15 15 14 14 13 13 16 17
4 4 4 4 5 8 8 8 8 8 8 13 12 12 15 15 16 19 21 19 16 16
5 7 7 7 7 9 9 9 8 9 11 8 9 12 13 17 17 19 19 19 20 19
5 7 8 8 9 9 9 9 8 7 7 9 9 9 11 14 16 16 17 17 20 21
5 7 9 9 10 11 10 9 9 10 10 10 10 8 10 13 13 15 15 15 16 18
6 7 8 8 9 9 10 11 12 12 12 12 9 12 13 13 13 16 17 16 17 15
8 9 10 8 7 7 9 9 10 10 11 12 12 15 18 16 11 12 13 15 15 14
8 6 7 6 6 6 6 8 8 9 10 10 11 16 18 17 13 11 11 14 17 16
6 7 7 7 7 7 8 8 9 8 11 11 12 16 14 13 12 12 10 11 15 16
6 6 6 6 6 5 8 8 7 10 10 11 11 13 15 12 8 8 7 8 9 18
7 6 6 7 5 7 7 7 7 9 9 8 8 9 14 13 6 7 6 6 7 7
Wind_Direction
298 287 269 279 289 265 231 222 221 188 213 219 192 188 191 194 198 191 195 195 189 182
285 306 311 315 287 285 284 250 203 215 213 229 191 176 208 193 198 199 196 189 180 181
298 307 323 320 306 302 277 272 247 232 227 221 220 179 180 200 207 203 198 189 189 187
313 330 345 321 323 313 302 316 328 284 245 227 229 206 193 190 184 194 204 199 200 191
351 345 321 317 321 311 305 330 322 302 306 270 224 215 212 204 199 197 192 196 192 185
7 345 335 341 329 327 338 327 315 311 302 293 283 233 223 218 209 202 203 193 194 190
10 358 356 348 340 344 339 324 318 306 290 287 279 273 231 225 221 212 202 199 192 191
12 3 1 351 348 344 336 324 311 298 294 281 277 268 258 231 224 214 200 195 193 193
20 14 5 1 349 335 325 323 320 317 309 297 284 277 263 259 231 214 203 192 188 191
26 19 10 351 339 326 317 306 307 302 297 290 287 271 262 251 255 230 208 191 187 189
12 2 353 339 330 314 309 310 307 300 297 292 290 277 265 249 252 251 207 197 189 186
346 336 340 343 328 327 318 317 316 305 308 296 288 286 279 256 249 239 228 207 190 190
322 311 303 307 313 303 315 302 310 312 305 296 298 300 293 273 255 224 199 189 199 190
302 299 295 291 279 309 318 307 304 309 308 306 304 310 300 279 223 204 184 182 186 196